When you browse on this site, cookies collect data to enhance your experience and personalize the content and advertising you see.
Visit our Privacy Policy to learn more. By continuing to use the site, you agree to this use of cookies and data.
  • In Portugal
  • List of Countries
  • For 7 days
  • Water Temperature
  • Weather Map
  • Weather Widgets
  • user-avatar
    Login

    Hourly Weather Gornouralskiy

    Today, 30 May, Saturday

    Time Temperature Precipitation Wind Pressure Humidity
    00:00 +13°C° 0 mm 2 mps 741 mmHg 78%
    01:00 +12°C° 0 mm 2 mps 741 mmHg 79%
    02:00 +12°C° 0 mm 2 mps 741 mmHg 80%
    03:00 +12°C° 0 mm 2 mps 741 mmHg 80%
    04:00 +10°C° 0 mm 2 mps 741 mmHg 81%
    05:00 +12°C° 0 mm 3 mps 741 mmHg 75%
    06:00 +14°C° 0 mm 3 mps 741 mmHg 69%
    07:00 +17°C° 0 mm 4 mps 740 mmHg 64%
    08:00 +19°C° 0 mm 4 mps 740 mmHg 59%
    09:00 +20°C° 0 mm 4 mps 740 mmHg 53%
    10:00 +22°C° 0 mm 4 mps 740 mmHg 48%
    11:00 +22°C° 0 mm 4 mps 740 mmHg 49%
    12:00 +22°C° 0 mm 4 mps 740 mmHg 50%
    13:00 +22°C° 0 mm 4 mps 739 mmHg 50%
    14:00 +21°C° 0 mm 4 mps 739 mmHg 54%
    15:00 +20°C° 0 mm 3 mps 739 mmHg 58%
    16:00 +19°C° 0 mm 3 mps 739 mmHg 62%
    17:00 +18°C° 0 mm 3 mps 739 mmHg 67%
    18:00 +17°C° 0 mm 2 mps 739 mmHg 72%
    19:00 +16°C° 0 mm 2 mps 738 mmHg 76%
    20:00 +14°C° 0 mm 1 mps 738 mmHg 81%
    21:00 +13°C° 0 mm 1 mps 738 mmHg 86%
    22:00 +12°C° 0 mm 1 mps 738 mmHg 91%
    23:00 +12°C° 0.1 mm 1 mps 738 mmHg 91%

    Tomorrow, 31 May, Sunday

    Time Temperature Precipitation Wind Pressure Humidity
    00:00 +12°C° 0.1 mm 1 mps 738 mmHg 92%
    01:00 +12°C° 0.1 mm 2 mps 738 mmHg 92%
    02:00 +12°C° 0 mm 2 mps 738 mmHg 89%
    03:00 +10°C° 0 mm 2 mps 737 mmHg 87%
    04:00 +10°C° 0 mm 2 mps 737 mmHg 84%
    05:00 +10°C° 0 mm 3 mps 737 mmHg 84%
    06:00 +10°C° 0 mm 3 mps 736 mmHg 83%
    07:00 +10°C° 0 mm 3 mps 736 mmHg 83%
    08:00 +10°C° 0.1 mm 4 mps 736 mmHg 84%
    09:00 +10°C° 0.1 mm 4 mps 735 mmHg 85%
    10:00 +9°C° 0.1 mm 5 mps 735 mmHg 87%
    11:00 +8°C° 0 mm 5 mps 735 mmHg 84%
    12:00 +8°C° 0 mm 5 mps 734 mmHg 82%
    13:00 +8°C° 0 mm 6 mps 734 mmHg 79%
    14:00 +7°C° 1.6 mm 5 mps 734 mmHg 84%
    15:00 +6°C° 1.6 mm 5 mps 734 mmHg 89%
    16:00 +6°C° 1.6 mm 5 mps 733 mmHg 94%
    17:00 +6°C° 2.2 mm 5 mps 733 mmHg 95%
    18:00 +5°C° 2.2 mm 5 mps 733 mmHg 96%
    19:00 +5°C° 2.2 mm 5 mps 732 mmHg 96%
    20:00 +5°C° 1 mm 5 mps 732 mmHg 96%
    21:00 +6°C° 1 mm 5 mps 732 mmHg 96%
    22:00 +6°C° 1 mm 5 mps 732 mmHg 96%
    23:00 +6°C° 0.4 mm 5 mps 731 mmHg 97%

    Day after tomorrow, 1 June, Monday

    Time Temperature Precipitation Wind Pressure Humidity
    00:00 +6°C° 0.4 mm 5 mps 731 mmHg 97%
    01:00 +6°C° 0.4 mm 5 mps 731 mmHg 97%
    02:00 +6°C° 0.3 mm 4 mps 731 mmHg 97%
    03:00 +7°C° 0.3 mm 3 mps 731 mmHg 97%
    04:00 +7°C° 0.3 mm 2 mps 731 mmHg 98%
    05:00 +7°C° 0.1 mm 2 mps 731 mmHg 98%
    06:00 +7°C° 0.1 mm 2 mps 731 mmHg 97%
    07:00 +7°C° 0.1 mm 2 mps 731 mmHg 97%
    08:00 +7°C° 0.2 mm 2 mps 732 mmHg 97%
    09:00 +8°C° 0.2 mm 2 mps 732 mmHg 97%
    10:00 +8°C° 0.2 mm 2 mps 732 mmHg 97%
    11:00 +8°C° 0.1 mm 2 mps 733 mmHg 96%
    12:00 +9°C° 0.1 mm 2 mps 733 mmHg 95%
    13:00 +9°C° 0.1 mm 2 mps 733 mmHg 94%
    14:00 +9°C° 0 mm 2 mps 733 mmHg 95%
    15:00 +9°C° 0 mm 2 mps 733 mmHg 95%
    16:00 +9°C° 0 mm 2 mps 733 mmHg 95%
    17:00 +9°C° 0.4 mm 3 mps 733 mmHg 96%
    18:00 +8°C° 0.4 mm 3 mps 733 mmHg 97%
    19:00 +8°C° 0.4 mm 3 mps 733 mmHg 98%
    20:00 +8°C° 0.2 mm 3 mps 733 mmHg 98%
    21:00 +8°C° 0.2 mm 3 mps 734 mmHg 98%
    22:00 +8°C° 0.2 mm 3 mps 734 mmHg 98%
    23:00 +8°C° 0.7 mm 3 mps 734 mmHg 98%

    2 June, Tuesday

    Time Temperature Precipitation Wind Pressure Humidity
    00:00 +8°C° 0.7 mm 3 mps 733 mmHg 98%
    01:00 +7°C° 0.7 mm 3 mps 733 mmHg 98%
    02:00 +7°C° 0.1 mm 2 mps 733 mmHg 98%
    03:00 +8°C° 0.1 mm 2 mps 733 mmHg 98%
    04:00 +8°C° 0.1 mm 2 mps 733 mmHg 98%
    05:00 +8°C° 0.1 mm 2 mps 733 mmHg 98%
    06:00 +9°C° 0.1 mm 2 mps 733 mmHg 98%
    07:00 +9°C° 0.1 mm 2 mps 733 mmHg 97%
    08:00 +9°C° 0.5 mm 2 mps 734 mmHg 96%
    09:00 +10°C° 0.5 mm 2 mps 734 mmHg 94%
    10:00 +10°C° 0.5 mm 2 mps 734 mmHg 93%
    11:00 +9°C° 0.3 mm 2 mps 735 mmHg 94%
    12:00 +9°C° 0.3 mm 2 mps 735 mmHg 95%
    13:00 +8°C° 0.3 mm 3 mps 736 mmHg 95%
    14:00 +8°C° 0.1 mm 3 mps 736 mmHg 96%
    15:00 +8°C° 0.1 mm 3 mps 737 mmHg 96%
    16:00 +8°C° 0.1 mm 3 mps 737 mmHg 96%
    17:00 +8°C° 0.1 mm 2 mps 737 mmHg 96%
    18:00 +8°C° 0.1 mm 2 mps 738 mmHg 95%
    19:00 +8°C° 0.1 mm 2 mps 738 mmHg 95%
    20:00 +7°C° 0 mm 2 mps 738 mmHg 96%
    21:00 +8°C° 0 mm 1 mps 738 mmHg 96%
    22:00 +7°C° 0 mm 1 mps 739 mmHg 97%
    23:00 +6°C° 0 mm 1 mps 739 mmHg 96%

    3 June, Wednesday

    Time Temperature Precipitation Wind Pressure Humidity
    00:00 +6°C° 0 mm 1 mps 739 mmHg 96%
    01:00 +5°C° 0 mm 1 mps 739 mmHg 95%
    02:00 +5°C° 0 mm 1 mps 739 mmHg 94%
    03:00 +5°C° 0 mm 1 mps 739 mmHg 94%
    04:00 +5°C° 0 mm 1 mps 739 mmHg 93%
    05:00 +7°C° 0 mm 1 mps 739 mmHg 89%
    06:00 +9°C° 0 mm 1 mps 739 mmHg 86%
    07:00 +11°C° 0 mm 1 mps 739 mmHg 82%
    08:00 +12°C° 0 mm 0 mps 739 mmHg 71%
    09:00 +14°C° 0 mm 0 mps 740 mmHg 61%
    10:00 +16°C° 0 mm 0 mps 740 mmHg 51%
    11:00 +16°C° 0 mm 0 mps 739 mmHg 50%
    12:00 +18°C° 0 mm 1 mps 739 mmHg 48%
    13:00 +18°C° 0 mm 1 mps 739 mmHg 46%
    14:00 +18°C° 0 mm 1 mps 739 mmHg 45%
    15:00 +18°C° 0 mm 1 mps 739 mmHg 44%
    16:00 +19°C° 0 mm 1 mps 739 mmHg 42%
    17:00 +18°C° 0 mm 1 mps 739 mmHg 48%
    18:00 +16°C° 0 mm 1 mps 739 mmHg 55%
    19:00 +15°C° 0 mm 1 mps 739 mmHg 61%
    20:00 +13°C° 0 mm 1 mps 739 mmHg 66%
    21:00 +11°C° 0 mm 1 mps 739 mmHg 72%
    22:00 +9°C° 0 mm 1 mps 739 mmHg 77%
    23:00 +8°C° 0 mm 1 mps 739 mmHg 81%

    4 June, Thursday

    Time Temperature Precipitation Wind Pressure Humidity
    00:00 +8°C° 0 mm 1 mps 740 mmHg 84%
    01:00 +7°C° 0 mm 1 mps 740 mmHg 87%
    02:00 +7°C° 0 mm 1 mps 740 mmHg 89%
    03:00 +6°C° 0 mm 1 mps 741 mmHg 90%
    04:00 +6°C° 0 mm 1 mps 741 mmHg 91%
    05:00 +8°C° 0 mm 1 mps 742 mmHg 83%
    06:00 +10°C° 0 mm 1 mps 742 mmHg 74%
    07:00 +13°C° 0 mm 1 mps 742 mmHg 66%
    08:00 +14°C° 0 mm 2 mps 742 mmHg 60%
    09:00 +15°C° 0 mm 2 mps 742 mmHg 53%
    10:00 +16°C° 0 mm 3 mps 743 mmHg 47%
    11:00 +17°C° 0 mm 3 mps 743 mmHg 46%
    12:00 +17°C° 0 mm 3 mps 743 mmHg 44%
    13:00 +18°C° 0 mm 3 mps 743 mmHg 42%
    14:00 +18°C° 0 mm 3 mps 743 mmHg 43%
    15:00 +18°C° 0 mm 3 mps 743 mmHg 43%
    16:00 +18°C° 0 mm 3 mps 743 mmHg 44%
    17:00 +17°C° 0 mm 2 mps 743 mmHg 50%
    18:00 +16°C° 0 mm 2 mps 743 mmHg 57%
    19:00 +15°C° 0 mm 1 mps 743 mmHg 64%
    20:00 +13°C° 0 mm 1 mps 744 mmHg 70%
    21:00 +11°C° 0 mm 1 mps 744 mmHg 75%
    22:00 +8°C° 0 mm 0 mps 744 mmHg 81%
    23:00 +8°C° 0 mm 0 mps 744 mmHg 82%
    Show more